Flag for Germany Weather past 2 weeks in Troisdorf, North Rhine-Westphalia, Germany

Now
68 °F

Fog.


Feels Like: 68 °F
Forecast: 53 / 70 °F
Wind: 5 mph from East

Location: Koeln / Bonn

Current Time: Aug 31, 2015 at 4:33:19 AM

Latest Report: Aug 31, 2015 at 4:20 AM


Visibility: N/A

Pressure: 29.95 "Hg

Humidity: 88%

Dew point: 64 °F

Location of TroisdorfLocation

Historic Weather in Troisdorf — Graph

°F

Troisdorf temperature yesterday

Maximum temperature yesterday: 93 °F (at 4:20 PM)
Minimum temperature yesterday: 66 °F (at 12:20 AM)
Average temperature yesterday: 78 °F

Past Weeks' High & Low Weather Summary

 TemperatureHumidityPressure
High93 °F (Aug 30, 4:20 PM)94% (Aug 16, 5:20 AM)30.27 "Hg (Aug 16, 5:20 AM)
Low46 °F (Aug 19, 6:50 AM)26% (Aug 23, 3:20 PM)29.56 "Hg (Aug 24, 2:20 PM)
Average65 °F71%29.99 "Hg
* Reported Aug 16 3:20 AM — Aug 31 3:20 AM, Troisdorf, Weather by CustomWeather, © 2015

Note: Actual official high and low records may vary slightly from our data, if they occured in-between our weather recording intervals... More about our weather records

Advertising

Troisdorf weather history for previous 24 hours

 ConditionsComfort  
Time TempWeatherWind HumidityBarometerVisibility
3:20 AM
Mon, Aug 31
70 °FClear.2 mph83%29.95 "Hg10 mi
2:50 AM70 °FClear.6 mph83%29.95 "Hg10 mi
2:20 AM70 °FFog.1 mph83%29.95 "HgN/A
1:50 AM70 °FFog.2 mph83%29.95 "HgN/A
1:20 AM72 °FFog.2 mph83%29.98 "HgN/A
12:50 AM72 °FClear.3 mph83%29.98 "Hg10 mi
12:20 AM72 °FClear.5 mph83%29.98 "Hg10 mi
11:20 PM
Sun, Aug 30
75 °FClear.2 mph78%29.98 "Hg10 mi
10:50 PM73 °FClear.3 mph78%29.98 "Hg10 mi
10:20 PM73 °FClear.3 mph83%29.98 "Hg10 mi
9:20 PM77 °FSunny.5 mph74%29.98 "Hg10 mi
8:50 PM77 °FSunny.1 mph74%29.98 "Hg10 mi
8:20 PM81 °FSunny.6 mph66%29.98 "Hg10 mi
7:50 PM82 °FSunny.3 mph66%29.98 "Hg10 mi
7:20 PM84 °FSunny.5 mph58%29.98 "Hg10 mi
6:50 PM86 °FSunny.6 mph55%29.98 "Hg10 mi
6:20 PM86 °FPassing clouds.6 mph52%29.98 "HgN/A
5:50 PM90 °FSunny.8 mph41%29.98 "Hg10 mi
5:20 PM91 °FSunny.9 mph38%29.98 "Hg10 mi
4:50 PM93 °FSunny.8 mph34%29.98 "Hg10 mi
4:20 PM93 °FSunny.9 mph30%29.98 "Hg10 mi
3:50 PM91 °FSunny.10 mph36%29.98 "Hg10 mi
3:20 PM91 °FSunny.10 mph41%29.98 "Hg10 mi
2:50 PM90 °FSunny.9 mph46%29.98 "Hg10 mi
2:20 PM90 °FSunny.10 mph49%30.01 "Hg10 mi
1:50 PM88 °FSunny.10 mph49%30.01 "Hg10 mi
1:20 PM88 °FSunny.8 mph49%30.01 "Hg10 mi
12:50 PM86 °FSunny.8 mph52%30.01 "Hg10 mi
12:20 PM84 °FSunny.8 mph58%30.01 "Hg10 mi
11:50 AM82 °FSunny.8 mph62%30.04 "Hg10 mi
11:20 AM82 °FSunny.7 mph58%30.04 "Hg10 mi
10:50 AM81 °FSunny.7 mph62%30.04 "Hg10 mi
10:20 AM79 °FSunny.7 mph65%30.04 "Hg10 mi
9:50 AM77 °FSunny.7 mph69%30.04 "Hg10 mi
9:20 AM75 °FSunny.7 mph74%30.04 "Hg10 mi
8:50 AM73 °FSunny.3 mph78%30.04 "Hg10 mi
8:20 AM72 °FSunny.2 mph78%30.04 "Hg10 mi
7:50 AM70 °FSunny.3 mph83%30.04 "Hg10 mi
7:20 AM70 °FClear.5 mph83%30.04 "Hg10 mi
6:50 AM68 °FClear.5 mph88%30.04 "Hg10 mi
6:20 AM68 °FClear.5 mph83%30.04 "Hg10 mi
5:50 AM68 °FClear.5 mph83%30.04 "Hg10 mi
5:20 AM68 °FClear.6 mph83%30.04 "Hg10 mi
4:50 AM68 °FClear.5 mph83%30.04 "Hg10 mi
4:20 AM68 °FFog.5 mph83%30.04 "HgN/A
Weather by CustomWeather, © 2015

See weather overviewHow to use our weather pages